Weather History for KBDR - October, 2013

Change the Weather History Date:

Thursday, October 17, 2013

  Actual Average Record
Temperature  
Mean Temperature 67 °F 54 °F  
Max Temperature 72 °F 63 °F 79 °F (1958)
Min Temperature 62 °F 46 °F 34 °F (1970)
Degree Days  
Heating Degree Days 0 11  
Month to date heating degree days 52 141  
Since 1 July heating degree days 133 209  
Cooling Degree Days 2 0  
Month to date cooling degree days 22 8  
Year to date cooling degree days 1003 824  
Growing Degree Days 16 (Base 50)    
Moisture  
Dew Point 61 °F    
Average Humidity 80    
Maximum Humidity 93    
Minimum Humidity 66    
Precipitation  
Precipitation 0.02 in 0.12 in 0.97 in (1989)
Month to date precipitation 0.28 2.04  
Year to date precipitation 29.78 34.42  
Snow  
Snow 0.00 in 0.00 in 0.00 in (2001)
Month to date snowfall 0.0 0.0  
Since 1 July snowfall 0.0 0.0  
Snow Depth 0.00 in    
Sea Level Pressure  
Sea Level Pressure 29.85 in    
Wind  
Wind Speed 10 mph (SW)    
Max Wind Speed 18 mph    
Max Gust Speed 23 mph    
Visibility 8 miles    
Events Rain    
T = Trace of Precipitation, MM = Missing Value Source: NWS Daily Summary

Daily Weather History Graph

Daily Weather History Graph

Search for Another Location

Airport or City:

Trip Planner

Search our weather history database for the weather conditions in past years. The results will help you decide how hot, cold, wet, or windy it might be!

Date:

Astronomy

Oct. 17, 2013 Rise Set
Actual Time 7:06 AM EDT 6:08 PM EDT
Civil Twilight 6:38 AM EDT 6:36 PM EDT
Nautical Twilight 6:06 AM EDT 7:08 PM EDT
Astronomical Twilight 5:34 AM EDT 7:40 PM EDT
Moon 5:21 PM EDT (10/17) 5:35 AM EDT (10/17)
Length of Visible Light 11h 57m
Length of Day
11h 01m
Waxing Gibbous, 98% of the Moon is Illuminated
Oct 17
Waxing Gibbous
Oct 18
Full
Oct 26
Last Quarter
Nov 3
New
Nov 10
First Quarter

Hourly Weather History & Observations

Time (EDT) Temp. Dew Point Humidity Pressure Visibility Wind Dir Wind Speed Gust Speed Precip Events Conditions
12:52 AM 62.1 °F 59.0 °F 90% 29.92 in 10.0 mi SW 5.8 mph - N/A   Overcast
1:47 AM 62.6 °F 59.0 °F 88% 29.91 in 10.0 mi WSW 5.8 mph - N/A   Overcast
1:52 AM 62.1 °F 59.0 °F 90% 29.91 in 10.0 mi WSW 4.6 mph - N/A   Overcast
2:52 AM 63.0 °F 59.0 °F 87% 29.90 in 10.0 mi SW 5.8 mph - N/A   Overcast
3:36 AM 62.6 °F 60.8 °F 94% 29.89 in 10.0 mi SSW 6.9 mph - N/A   Overcast
3:52 AM 63.0 °F 60.1 °F 90% 29.89 in 10.0 mi SW 6.9 mph - N/A   Overcast
4:20 AM 62.6 °F 60.8 °F 94% 29.88 in 10.0 mi SW 5.8 mph - N/A   Overcast
4:52 AM 63.0 °F 59.0 °F 87% 29.88 in 10.0 mi SW 5.8 mph - N/A   Overcast
5:52 AM 63.0 °F 60.1 °F 90% 29.89 in 10.0 mi SW 6.9 mph - N/A   Overcast
6:52 AM 63.0 °F 60.1 °F 90% 29.89 in 10.0 mi SW 6.9 mph - N/A   Overcast
7:52 AM 63.0 °F 60.1 °F 90% 29.89 in 7.0 mi SSW 10.4 mph - N/A   Overcast
8:14 AM 62.6 °F 60.8 °F 94% 29.90 in 8.0 mi SW 8.1 mph - N/A   Overcast
8:52 AM 64.0 °F 61.0 °F 90% 29.90 in 7.0 mi SW 9.2 mph - N/A   Overcast
9:08 AM 64.4 °F 60.8 °F 88% 29.90 in 7.0 mi SW 10.4 mph - N/A   Overcast
9:30 AM 64.4 °F 60.8 °F 88% 29.89 in 8.0 mi SW 10.4 mph - N/A   Overcast
9:52 AM 64.0 °F 61.0 °F 90% 29.90 in 7.0 mi SW 9.2 mph - N/A   Overcast
10:18 AM 64.4 °F 60.8 °F 88% 29.89 in 6.0 mi SW 8.1 mph - N/A   Overcast
10:28 AM 64.4 °F 60.8 °F 88% 29.89 in 6.0 mi SW 9.2 mph - N/A   Overcast
10:52 AM 64.9 °F 61.0 °F 87% 29.89 in 6.0 mi SW 10.4 mph - N/A   Overcast
11:00 AM 64.4 °F 60.8 °F 88% 29.88 in 6.0 mi SW 11.5 mph - N/A   Overcast
11:26 AM 64.4 °F 60.8 °F 88% 29.88 in 6.0 mi SW 9.2 mph - N/A   Overcast
11:33 AM 64.4 °F 60.8 °F 88% 29.88 in 6.0 mi SW 10.4 mph - N/A   Overcast
11:42 AM 64.4 °F 60.8 °F 88% 29.88 in 6.0 mi SW 10.4 mph - N/A   Overcast
11:52 AM 64.9 °F 62.1 °F 90% 29.88 in 6.0 mi SW 9.2 mph - N/A   Overcast
12:52 PM 68.0 °F 62.1 °F 81% 29.85 in 7.0 mi SW 10.4 mph - N/A   Overcast
1:18 PM 68.0 °F 60.8 °F 78% 29.84 in 7.0 mi SW 10.4 mph - N/A   Scattered Clouds
1:52 PM 69.1 °F 61.0 °F 75% 29.84 in 7.0 mi SSW 11.5 mph - N/A   Mostly Cloudy
2:01 PM 69.8 °F 60.8 °F 73% 29.83 in 7.0 mi SSW 11.5 mph - N/A   Partly Cloudy
2:52 PM 70.0 °F 61.0 °F 73% 29.82 in 9.0 mi SW 9.2 mph - N/A   Clear
3:52 PM 72.0 °F 59.0 °F 64% 29.79 in 10.0 mi SSW 10.4 mph - N/A   Clear
4:52 PM 71.1 °F 60.1 °F 68% 29.80 in 10.0 mi SW 9.2 mph - N/A   Clear
5:52 PM 68.0 °F 61.0 °F 78% 29.78 in 9.0 mi South 8.1 mph - N/A   Clear
6:52 PM 66.0 °F 62.1 °F 87% 29.77 in 9.0 mi South 8.1 mph - N/A   Clear
7:52 PM 64.0 °F 61.0 °F 90% 29.78 in 8.0 mi SSW 9.2 mph - N/A   Partly Cloudy
8:17 PM 64.4 °F 60.8 °F 88% 29.77 in 8.0 mi SSW 6.9 mph - N/A   Mostly Cloudy
8:52 PM 64.0 °F 61.0 °F 90% 29.77 in 7.0 mi South 5.8 mph - N/A   Mostly Cloudy
9:52 PM 64.0 °F 62.1 °F 93% 29.75 in 7.0 mi South 13.8 mph 21.9 mph 0.00 in Rain Light Rain
10:52 PM 64.0 °F 62.1 °F 93% 29.74 in 10.0 mi South 10.4 mph - 0.01 in   Overcast
11:52 PM 64.9 °F 62.1 °F 90% 29.71 in 10.0 mi South 13.8 mph - N/A   Overcast